Location: Muenchen
(48.1800°N, 11.5800°E)
Time: 00:59:55
(UTC+01:00)

ISS - Visible Passes

Search period start: 22 January 2018 00:00
Search period end: 01 February 2018 00:00
Orbit: 402 x 407 km, 51.6° (Epoch: 22 January)

Date Brightness Start Highest point End Pass type
(mag) Time Alt. Az. Time Alt. Az. Time Alt. Az.
25 Jan -0.7 19:46:02 10° SW 19:46:17 12° SW 19:46:17 12° SW visible
26 Jan -2.4 18:54:06 10° SSW 18:56:24 26° SSE 18:56:24 26° SSE visible
27 Jan -1.9 18:02:34 10° S 18:04:47 17° SE 18:06:25 13° ESE visible
27 Jan -1.6 19:37:35 10° WSW 19:39:05 25° WSW 19:39:05 25° WSW visible
28 Jan -3.6 18:45:20 10° SW 18:48:32 54° SSE 18:49:02 47° ESE visible
29 Jan -2.8 17:53:16 10° SSW 17:56:14 33° SE 17:58:54 12° E visible
29 Jan -2.4 19:29:21 10° W 19:31:34 38° W 19:31:34 38° W visible
30 Jan -3.9 18:36:53 10° WSW 18:40:10 86° NNW 18:41:23 36° ENE visible
30 Jan -0.4 20:13:43 10° WNW 20:14:02 12° WNW 20:14:02 12° WNW visible
31 Jan -3.6 17:44:33 10° SW 17:47:46 63° SSE 17:51:00 10° ENE visible
31 Jan -2.8 19:21:10 10° W 19:23:48 42° NW 19:23:48 42° NW visible
